User: anonymous   Login
Location: Unspecified
(0.0000°N, 0.0000°E)
Time: 21:53:43
(UTC+00:00)
Language:

MUNIN - Orbit

View from above orbital plane
View from above orbital plane
View from above satellite
View from above satellite

Ground track
Ground track

The orbit data is extracted from the following two-line orbital elements,

1 26621U 00075C   17082.79994380 +.00000995 +00000-0 +93158-3 0  9998
2 26621 095.4052 182.2330 0710874 296.9461 056.0759 13.04122422777269
Epoch (UTC): 23 March 2017 19:11:55
Eccentricity: 0.0710874
inclination: 95.4052°
perigee height: 704 km
apogee height: 1788 km
right ascension of ascending node: 182.2330°
argument of perigee: 296.9461°
revolutions per day: 13.04122422
mean anomaly at epoch: 56.0759°
orbit number at epoch: 77726

The dashed part of the orbit path shows where the satellite is in the earth's shadow,  

DLR